FW7504 Weather Reports


time (UTC)temp
F
wind
direction
speed
knots
gust
knots
rain 1hr
in
rain 24hr
in
rain mn
in
humidity
%
barometer
mb
20260902013103 84 0 0.0 0.0 0.00 0.00 0.00 72 1019.3
20260902012552 84 0 0.0 0.0 0.00 0.00 0.00 72 1019.2
20260902012053 84 0 0.0 0.0 0.00 0.00 0.00 72 1019.3
20260902011608 84 0 0.0 0.0 0.00 0.00 0.00 71 1019.3
20260902011053 85 0 0.0 0.0 0.00 0.00 0.00 70 1019.3
20260902010553 85 0 0.0 0.0 0.00 0.00 0.00 69 1019.3
20260902010117 85 0 0.0 0.0 0.00 0.00 0.00 69 1019.2
20260902005552 85 0 0.0 0.0 0.00 0.00 0.00 69 1019.1
20260902005054 86 0 0.0 0.0 0.00 0.00 0.00 68 1019.1
20260902004607 86 0 0.0 0.0 0.00 0.00 0.00 68 1019.1
20260902004053 86 0 0.0 0.0 0.00 0.00 0.00 67 1019.2
20260902003553 87 0 0.0 0.0 0.00 0.00 0.00 67 1019.1
20260902003105 87 0 0.0 0.0 0.00 0.00 0.00 66 1019.0
20260902002553 87 0 0.0 0.0 0.00 0.00 0.00 66 1019.1
20260902002053 88 0 0.0 0.0 0.00 0.00 0.00 65 1019.1
20260902001622 88 0 0.0 0.0 0.00 0.00 0.00 64 1019.1
20260902001055 89 0 0.0 0.0 0.00 0.00 0.00 63 1018.9
20260902000552 89 0 0.0 0.0 0.00 0.00 0.00 62 1019.1
20260902000107 90 0 0.0 0.0 0.00 0.00 0.00 61 1019.0
20260901235553 90 0 0.0 0.0 0.00 0.00 0.00 60 1019.1
20260901235053 91 0 0.0 0.0 0.00 0.00 0.00 59 1019.1
20260901234604 91 0 0.0 0.9 0.00 0.00 0.00 57 1019.1
20260901234053 91 0 0.0 1.7 0.00 0.00 0.00 56 1019.1
20260901233553 92 0 0.0 1.7 0.00 0.00 0.00 56 1019.2
20260901233102 92 0 0.0 1.7 0.00 0.00 0.00 55 1019.2
20260901232554 92 0 0.0 4.3 0.00 0.00 0.00 54 1019.3
20260901232054 92 0 0.0 4.3 0.00 0.00 0.00 54 1019.2
20260901231607 92 360 2.6 4.3 0.00 0.00 0.00 53 1019.2
20260901231052 93 360 0.9 5.2 0.00 0.00 0.00 52 1019.2
20260901230553 93 360 0.0 5.2 0.00 0.00 0.00 52 1019.2
20260901230059 93 360 1.7 5.2 0.00 0.00 0.00 52 1019.2
20260901225553 93 360 0.9 4.3 0.00 0.00 0.00 52 1019.1
20260901225052 93 360 0.9 7.0 0.00 0.00 0.00 52 1019.2
20260901224605 93 360 1.7 7.0 0.00 0.00 0.00 51 1019.2
20260901224052 93 360 0.9 5.2 0.00 0.00 0.00 52 1019.1
20260901223552 93 360 2.6 5.2 0.00 0.00 0.00 51 1019.0
20260901223102 94 0 0.9 3.5 0.00 0.00 0.00 51 1018.9
20260901222552 94 360 0.9 3.5 0.00 0.00 0.00 50 1019.0
20260901222056 94 0 0.9 4.3 0.00 0.00 0.00 50 1019.0
20260901221621 94 360 0.0 4.3 0.00 0.00 0.00 50 1019.1
20260901221053 94 360 1.7 4.3 0.00 0.00 0.00 50 1019.1
20260901220552 94 360 0.0 5.2 0.00 0.00 0.00 50 1018.8
20260901220122 94 0 0.0 5.2 0.00 0.00 0.00 49 1018.8
20260901215552 94 360 0.0 5.2 0.00 0.00 0.00 49 1018.8
20260901215052 94 0 2.6 5.2 0.00 0.00 0.00 49 1019.0
20260901214604 94 360 0.9 5.2 0.00 0.00 0.00 49 1019.0
20260901214053 94 360 0.9 5.2 0.00 0.00 0.00 49 1018.9
20260901213553 94 360 0.0 7.0 0.00 0.00 0.00 49 1019.0
20260901213107 94 0 0.9 7.0 0.00 0.00 0.00 49 1019.0
20260901212553 94 360 2.6 7.0 0.00 0.00 0.00 50 1019.1
20260901212056 94 0 0.0 3.5 0.00 0.00 0.00 50 1019.2
20260901211600 94 360 0.9 4.3 0.00 0.00 0.00 50 1019.2
20260901211052 93 0 0.9 5.2 0.00 0.00 0.00 50 1019.2
20260901210552 93 360 1.7 7.8 0.00 0.00 0.00 50 1019.2
20260901210106 93 360 2.6 7.8 0.00 0.00 0.00 51 1019.1
20260901205552 93 360 2.6 7.8 0.00 0.00 0.00 50 1019.2
20260901205056 93 360 1.7 7.0 0.00 0.00 0.00 51 1019.2
20260901204606 93 0 1.7 7.8 0.00 0.00 0.00 52 1019.3
20260901204058 93 360 2.6 7.8 0.00 0.00 0.00 52 1019.3
20260901203553 93 0 2.6 7.8 0.00 0.00 0.00 51 1019.3
20260901203103 93 0 3.5 7.8 0.00 0.00 0.00 50 1019.4
20260901202553 93 360 3.5 7.8 0.00 0.00 0.00 51 1019.5
20260901202052 93 360 0.9 4.3 0.00 0.00 0.00 52 1019.6
20260901201602 93 360 0.0 1.7 0.00 0.00 0.00 53 1019.6
20260901201052 93 0 0.0 3.5 0.00 0.00 0.00 51 1019.7
20260901200553 93 0 0.0 5.2 0.00 0.00 0.00 52 1019.8
20260901195553 92 360 2.6 5.2 0.00 0.00 0.00 52 1019.8
20260901195053 92 360 0.9 4.3 0.00 0.00 0.00 52 1019.8
20260901194601 92 0 1.7 7.8 0.00 0.00 0.00 51 1020.0
20260901194055 93 360 2.6 7.8 0.00 0.00 0.00 52 1020.0
20260901193553 92 360 1.7 7.0 0.00 0.00 0.00 53 1020.1
20260901193107 92 360 0.9 4.3 0.00 0.00 0.00 53 1020.1
20260901192556 92 360 0.9 4.3 0.00 0.00 0.00 53 1020.2
20260901192052 92 360 0.9 4.3 0.00 0.00 0.00 52 1020.3
20260901191619 92 0 1.7 5.2 0.00 0.00 0.00 52 1020.4
20260901191055 92 360 0.9 5.2 0.00 0.00 0.00 52 1020.3
20260901190554 93 360 0.0 3.5 0.00 0.00 0.00 53 1020.5
20260901190101 93 0 0.0 3.5 0.00 0.00 0.00 52 1020.4
20260901185553 93 0 0.9 7.8 0.00 0.00 0.00 51 1020.5
20260901185052 93 360 1.7 7.8 0.00 0.00 0.00 52 1020.4
20260901184602 93 360 2.6 7.8 0.00 0.00 0.00 52 1020.4
20260901184052 92 360 2.6 7.0 0.00 0.00 0.00 51 1020.5
20260901183552 92 360 1.7 5.2 0.00 0.00 0.00 50 1020.6
20260901183104 92 0 0.0 3.5 0.00 0.00 0.00 52 1020.6
20260901182554 92 360 0.0 2.6 0.00 0.00 0.00 52 1020.7
20260901182053 92 0 0.0 4.3 0.00 0.00 0.00 52 1020.8
20260901181610 92 0 0.9 7.0 0.00 0.00 0.00 50 1020.8
20260901181052 92 0 1.7 7.0 0.00 0.00 0.00 51 1020.9
20260901180553 92 360 0.9 7.0 0.00 0.00 0.00 51 1020.9
20260901175553 92 360 0.9 4.3 0.00 0.00 0.00 53 1020.9
20260901175052 92 0 0.9 4.3 0.00 0.00 0.00 54 1021.0
20260901174605 91 360 0.9 4.3 0.00 0.00 0.00 54 1021.0
20260901174052 91 360 0.9 4.3 0.00 0.00 0.00 53 1021.0
20260901173552 91 360 0.9 4.3 0.00 0.00 0.00 55 1021.1
20260901173106 91 360 0.9 4.3 0.00 0.00 0.00 55 1021.1
20260901172552 90 0 0.9 5.2 0.00 0.00 0.00 57 1021.3
20260901172054 90 360 1.7 5.2 0.00 0.00 0.00 59 1021.3
20260901171607 90 360 0.0 3.5 0.00 0.00 0.00 60 1021.4
20260901171052 90 0 0.9 3.5 0.00 0.00 0.00 59 1021.5
20260901170555 90 360 0.0 2.6 0.00 0.00 0.00 60 1021.5
20260901170109 90 0 0.9 2.6 0.00 0.00 0.00 59 1021.6
20260901165619 89 0 0.0 3.5 0.00 0.00 0.00 60 1021.7
20260901165052 89 0 0.0 4.3 0.00 0.00 0.00 59 1021.8
20260901164600 89 360 1.7 4.3 0.00 0.00 0.00 60 1021.9
20260901164054 89 0 0.9 3.5 0.00 0.00 0.00 61 1021.8
20260901163552 89 360 0.0 1.7 0.00 0.00 0.00 63 1021.9
20260901163112 88 0 0.0 3.5 0.00 0.00 0.00 62 1022.0
20260901162556 88 0 0.9 4.3 0.00 0.00 0.00 62 1022.0
20260901162053 88 0 1.7 4.3 0.00 0.00 0.00 63 1022.0
20260901161612 87 76 0.0 3.5 0.00 0.00 0.00 63 1022.1
20260901161052 87 0 0.0 3.5 0.00 0.00 0.00 64 1022.2
20260901160555 87 350 0.0 3.5 0.00 0.00 0.00 65 1022.2
20260901160110 87 304 0.9 3.5 0.00 0.00 0.00 65 1022.2
20260901155552 87 291 0.0 2.6 0.00 0.00 0.00 66 1022.2
20260901155057 87 0 0.0 2.6 0.00 0.00 0.00 66 1022.4
20260901154609 86 335 0.0 2.6 0.00 0.00 0.00 67 1022.4
20260901154052 86 0 0.0 1.7 0.00 0.00 0.00 67 1022.4
20260901153552 86 318 0.0 1.7 0.00 0.00 0.00 66 1022.5
20260901153105 86 0 0.0 2.6 0.00 0.00 0.00 68 1022.4
20260901152552 86 248 0.0 2.6 0.00 0.00 0.00 70 1022.4
20260901152052 86 0 0.0 2.6 0.00 0.00 0.00 70 1022.5
20260901151607 86 0 0.9 2.6 0.00 0.00 0.00 70 1022.6
20260901151057 86 0 0.0 1.7 0.00 0.00 0.00 70 1022.5
20260901150552 86 0 0.0 2.6 0.00 0.00 0.00 71 1022.5
20260901150107 85 10 0.0 2.6 0.00 0.00 0.00 71 1022.6
20260901145552 85 13 0.9 2.6 0.00 0.00 0.00 72 1022.5
20260901145051 85 0 0.9 2.6 0.00 0.00 0.00 72 1022.7
20260901144601 85 0 0.0 0.0 0.00 0.00 0.00 72 1022.5
20260901144051 84 0 0.0 2.6 0.00 0.00 0.00 73 1022.6
20260901143553 84 0 0.0 2.6 0.00 0.00 0.00 73 1022.4
20260901143101 84 0 0.9 2.6 0.00 0.00 0.00 73 1022.5
20260901142553 84 0 0.0 4.3 0.00 0.00 0.00 74 1022.5
20260901142053 83 0 0.9 4.3 0.00 0.00 0.00 75 1022.6
20260901141602 82 360 0.9 3.5 0.00 0.00 0.00 76 1022.6
20260901141052 82 0 0.0 1.7 0.00 0.00 0.00 77 1022.3
20260901140552 81 360 0.0 1.7 0.00 0.00 0.00 78 1022.6
20260901140108 80 0 0.0 1.7 0.00 0.00 0.00 80 1022.6
20260901135553 80 0 0.0 2.6 0.00 0.00 0.00 80 1022.6
20260901135052 79 0 0.0 2.6 0.00 0.00 0.00 81 1022.6
20260901134603 79 360 0.0 2.6 0.00 0.00 0.00 83 1022.5
20260901134052 78 360 0.9 2.6 0.00 0.00 0.00 84 1022.5
20260901133552 77 0 0.0 1.7 0.00 0.00 0.00 84 1022.4
20260901133059 77 0 0.0 0.9 0.00 0.00 0.00 86 1022.4
20260901132555 76 0 0.0 0.0 0.00 0.00 0.00 87 1022.5
20260901132052 76 0 0.0 0.0 0.00 0.00 0.00 88 1022.6
20260901131602 75 0 0.0 0.0 0.00 0.00 0.00 88 1022.5
20260901131052 74 0 0.0 0.0 0.00 0.00 0.00 89 1022.4
20260901130552 74 0 0.0 0.0 0.00 0.00 0.00 89 1022.6
20260901130105 74 0 0.0 0.0 0.00 0.00 0.00 90 1022.5
20260901125551 73 0 0.0 0.0 0.00 0.00 0.00 91 1022.6
20260901125051 73 0 0.0 0.0 0.00 0.00 0.00 91 1022.5
20260901124602 72 0 0.0 0.0 0.00 0.00 0.00 91 1022.5
20260901124052 72 0 0.0 0.0 0.00 0.00 0.00 91 1022.5
20260901123552 72 0 0.0 0.0 0.00 0.00 0.00 91 1022.4
20260901123101 72 0 0.0 0.0 0.00 0.00 0.00 92 1022.4
20260901122553 71 0 0.0 0.0 0.00 0.00 0.00 92 1022.3
20260901122053 71 0 0.0 0.0 0.00 0.00 0.00 92 1022.3
20260901121602 71 0 0.0 0.0 0.00 0.00 0.00 92 1022.2
20260901121053 71 0 0.0 0.0 0.00 0.00 0.00 92 1022.1
20260901120552 71 0 0.0 0.0 0.00 0.00 0.00 92 1022.2
20260901120104 71 0 0.0 0.0 0.00 0.00 0.00 92 1022.0
20260901115552 71 0 0.0 0.0 0.00 0.00 0.00 92 1022.0
20260901115053 71 0 0.0 0.0 0.00 0.00 0.00 92 1021.9
20260901114643 70 0 0.0 0.0 0.00 0.00 0.00 92 1021.8
20260901114051 70 0 0.0 0.0 0.00 0.00 0.00 91 1021.8
20260901113552 71 0 0.0 0.0 0.00 0.00 0.00 91 1021.6
20260901113100 71 0 0.0 0.0 0.00 0.00 0.00 91 1021.5
20260901112552 70 0 0.0 0.0 0.00 0.00 0.00 91 1021.5
20260901112052 71 0 0.0 0.0 0.00 0.00 0.00 91 1021.4
20260901111606 71 0 0.0 0.0 0.00 0.00 0.00 91 1021.5
20260901111052 71 0 0.0 0.0 0.00 0.00 0.00 91 1021.4
20260901110552 71 0 0.0 0.0 0.00 0.00 0.00 91 1021.3
20260901105552 71 0 0.0 0.0 0.00 0.00 0.00 91 1021.2
20260901105051 71 0 0.0 0.0 0.00 0.00 0.00 91 1021.1
20260901104603 71 0 0.0 0.0 0.00 0.00 0.00 91 1021.2
20260901104052 71 0 0.0 0.0 0.00 0.00 0.00 91 1021.0
20260901103552 71 0 0.0 0.0 0.00 0.00 0.00 91 1021.0
20260901103106 71 0 0.0 0.0 0.00 0.00 0.00 91 1021.0
20260901102553 71 0 0.0 0.0 0.00 0.00 0.00 91 1021.0
20260901102049 71 0 0.0 0.0 0.00 0.00 0.00 90 1021.1
20260901101606 71 0 0.0 0.0 0.00 0.00 0.00 90 1021.0
20260901101053 71 0 0.0 0.0 0.00 0.00 0.00 90 1021.0
20260901100552 71 0 0.0 0.0 0.00 0.00 0.00 90 1021.0
20260901100110 71 0 0.0 0.0 0.00 0.00 0.00 90 1020.9
20260901095553 71 0 0.0 0.0 0.00 0.00 0.00 90 1021.0
20260901095052 71 0 0.0 0.0 0.00 0.00 0.00 90 1020.9
20260901094603 71 0 0.0 0.0 0.00 0.00 0.00 90 1020.7
20260901094052 71 0 0.0 0.0 0.00 0.00 0.00 90 1020.9
20260901093551 72 0 0.0 0.0 0.00 0.00 0.00 90 1020.9
20260901093105 72 0 0.0 0.0 0.00 0.00 0.00 90 1021.0
20260901092552 72 0 0.0 0.0 0.00 0.00 0.00 90 1020.9
20260901092052 72 0 0.0 1.7 0.00 0.00 0.00 90 1020.8
20260901091617 72 0 0.0 1.7 0.00 0.00 0.00 89 1020.7
20260901091053 72 360 0.0 1.7 0.00 0.00 0.00 89 1020.7
20260901090553 72 0 0.0 0.0 0.00 0.00 0.00 89 1020.8
20260901090105 72 0 0.0 0.0 0.00 0.00 0.00 89 1020.7
20260901085552 72 0 0.0 0.0 0.00 0.00 0.00 89 1020.6
20260901085052 72 0 0.0 0.0 0.00 0.00 0.00 89 1020.6
20260901084605 72 0 0.0 0.9 0.00 0.00 0.00 89 1020.6
20260901084053 72 0 0.0 0.9 0.00 0.00 0.00 89 1020.6
20260901083550 72 0 0.0 0.9 0.00 0.00 0.00 89 1020.5
20260901083106 72 0 0.0 0.0 0.00 0.00 0.00 89 1020.6
20260901082549 72 0 0.0 0.0 0.00 0.00 0.00 89 1020.5
20260901082053 72 0 0.0 0.0 0.00 0.00 0.00 88 1020.7
20260901081603 72 0 0.0 0.0 0.00 0.00 0.00 88 1020.7
20260901081052 73 0 0.0 0.0 0.00 0.00 0.00 88 1020.5
20260901080552 73 0 0.0 0.0 0.00 0.00 0.00 88 1020.4
20260901080107 73 0 0.0 0.0 0.00 0.00 0.00 88 1020.5
20260901075552 73 0 0.0 0.0 0.00 0.00 0.00 87 1020.5
20260901075049 73 0 0.0 0.0 0.00 0.00 0.00 88 1020.5
20260901074603 73 0 0.0 0.0 0.00 0.00 0.00 88 1020.3
20260901074051 73 0 0.0 0.0 0.00 0.00 0.00 88 1020.4
20260901073552 73 0 0.0 0.0 0.00 0.00 0.00 88 1020.4
20260901073106 73 0 0.0 0.0 0.00 0.00 0.00 87 1020.4
20260901072553 73 0 0.0 0.0 0.00 0.00 0.00 87 1020.3
20260901072053 73 0 0.0 0.0 0.00 0.00 0.00 87 1020.4
20260901071604 73 0 0.0 0.0 0.00 0.00 0.00 87 1020.5
20260901071049 73 0 0.0 0.0 0.00 0.00 0.00 87 1020.4
20260901070551 73 0 0.0 0.0 0.00 0.00 0.00 87 1020.5
20260901070114 74 0 0.0 0.0 0.00 0.00 0.00 86 1020.5
20260901065551 74 0 0.0 0.0 0.00 0.00 0.00 86 1020.4
20260901065053 74 0 0.0 0.0 0.00 0.00 0.00 86 1020.5
20260901064604 74 0 0.0 0.0 0.00 0.00 0.00 86 1020.6
20260901064051 74 0 0.0 0.9 0.00 0.00 0.00 86 1020.6
20260901063552 74 0 0.0 0.9 0.00 0.00 0.00 86 1020.7
20260901063101 74 0 0.0 0.9 0.00 0.00 0.00 85 1020.6
20260901062554 74 0 0.0 0.0 0.00 0.00 0.00 85 1020.8
20260901062055 74 0 0.0 0.0 0.00 0.00 0.00 85 1020.9
20260901061605 74 0 0.0 0.0 0.00 0.00 0.00 85 1020.8
20260901061052 74 0 0.0 0.0 0.00 0.00 0.00 85 1020.7
20260901060552 74 0 0.0 0.0 0.00 0.00 0.00 85 1020.7
20260901060107 74 0 0.0 0.0 0.00 0.00 0.00 85 1020.7
20260901055552 75 0 0.0 0.0 0.00 0.00 0.00 85 1020.7
20260901055052 75 0 0.0 0.0 0.00 0.00 0.00 85 1020.7
20260901054602 75 0 0.0 0.0 0.00 0.00 0.00 84 1020.7
20260901054054 75 0 0.0 0.0 0.00 0.00 0.00 84 1020.7
20260901053552 75 0 0.0 0.0 0.00 0.00 0.00 84 1020.8
20260901053116 75 0 0.0 0.9 0.00 0.00 0.00 84 1020.8
20260901052549 75 0 0.0 0.9 0.00 0.00 0.00 84 1020.9
20260901052051 75 0 0.0 0.0 0.00 0.00 0.00 84 1020.7
20260901051606 75 0 0.0 0.0 0.00 0.00 0.00 84 1020.8
20260901051052 75 0 0.0 0.0 0.00 0.00 0.00 83 1020.8
20260901050551 76 0 0.0 0.0 0.00 0.00 0.00 83 1020.9
20260901050108 76 0 0.0 0.0 0.00 0.00 0.00 83 1020.7
20260901045551 76 0 0.0 0.0 0.00 0.00 0.00 82 1020.8
20260901045052 76 0 0.0 0.0 0.00 0.00 0.00 83 1020.8
20260901044609 76 0 0.0 0.0 0.00 0.00 0.00 82 1020.7
20260901044055 76 0 0.0 1.7 0.00 0.00 0.00 82 1020.6
20260901043551 76 0 0.0 1.7 0.00 0.00 0.00 83 1020.6
20260901043104 76 360 0.9 1.7 0.00 0.00 0.00 83 1020.5
20260901042555 76 360 0.0 0.9 0.00 0.00 0.00 82 1020.6
20260901042052 76 0 0.0 0.0 0.00 0.00 0.00 82 1020.7
20260901041605 77 0 0.0 0.0 0.00 0.00 0.00 82 1020.8
20260901041055 77 0 0.0 0.0 0.00 0.00 0.00 82 1020.7
20260901040553 77 0 0.0 0.0 0.00 0.00 0.00 81 1020.7
20260901040106 77 0 0.0 0.9 0.00 0.00 0.00 81 1020.8
20260901035552 77 0 0.0 0.9 0.00 0.00 0.00 81 1020.7
20260901035052 77 360 0.0 0.9 0.00 0.00 0.00 81 1020.6
20260901034604 77 0 0.0 0.0 0.00 0.00 0.00 81 1020.6
20260901034051 78 0 0.0 0.0 0.00 0.00 0.00 80 1020.7
20260901033548 78 0 0.0 0.0 0.00 0.00 0.00 79 1020.6
20260901033118 78 0 0.0 0.9 0.00 0.00 0.00 79 1020.6
20260901032548 78 0 0.0 0.9 0.00 0.00 0.00 79 1020.5
20260901032051 78 0 0.0 0.9 0.00 0.00 0.00 79 1020.5
20260901031601 78 0 0.0 0.0 0.00 0.00 0.00 78 1020.5
20260901031051 79 0 0.0 0.0 0.00 0.00 0.00 78 1020.6
20260901030551 79 0 0.0 0.0 0.00 0.00 0.00 78 1020.7
20260901030108 79 0 0.0 0.0 0.00 0.00 0.00 77 1020.7
20260901025551 79 0 0.0 1.7 0.00 0.00 0.00 77 1020.6
20260901025053 79 0 0.0 1.7 0.00 0.00 0.00 77 1020.7
20260901024603 79 0 0.0 0.9 0.00 0.00 0.00 76 1020.6
20260901024051 80 0 0.0 0.0 0.00 0.00 0.00 77 1020.6
20260901023551 80 0 0.0 0.0 0.00 0.00 0.00 77 1020.7
20260901023102 80 0 0.0 0.0 0.00 0.00 0.00 77 1020.7
20260901022548 80 0 0.0 0.0 0.00 0.00 0.00 76 1020.6
20260901022051 80 0 0.0 0.0 0.00 0.00 0.00 76 1020.6
20260901021605 80 0 0.0 0.0 0.00 0.00 0.00 76 1020.5
20260901021051 80 0 0.0 0.0 0.00 0.00 0.00 75 1020.6
20260901020551 80 0 0.0 0.0 0.00 0.00 0.00 75 1020.6
20260901020058 81 0 0.0 0.0 0.00 0.00 0.00 74 1020.3
20260901015552 81 0 0.0 0.0 0.00 0.00 0.00 73 1020.2
20260901015051 81 0 0.0 0.0 0.00 0.00 0.00 73 1020.2
20260901014559 81 0 0.0 0.0 0.00 0.00 0.00 73 1020.0
20260901014051 82 0 0.0 0.0 0.00 0.00 0.00 71 1020.0
20260901013551 82 0 0.0 0.0 0.00 0.00 0.00 70 1020.0